TimeJST,TemperatureF,Dew PointF,Humidity,Sea Level PressureIn,VisibilityMPH,Wind Direction,Wind SpeedMPH,Gust SpeedMPH,PrecipitationIn,Events,Conditions,WindDirDegrees,DateUTC
5:00 AM,53.6,44.6,72,30.04,-9999.0,ENE,6.9,-,N/A,,Clear,70,2012-11-10 20:00:00
6:00 AM,53.6,44.6,72,30.04,6.2,ENE,10.4,-,N/A,,Mostly Cloudy,70,2012-11-10 21:00:00
7:00 AM,55.4,46.4,72,30.01,6.2,ENE,10.4,-,N/A,,Mostly Cloudy,70,2012-11-10 22:00:00
8:00 AM,57.2,48.2,72,30.01,6.2,East,11.5,-,N/A,Rain,Light Rain,80,2012-11-10 23:00:00
9:00 AM,57.2,50.0,77,30.01,6.2,East,6.9,-,N/A,Rain,Light Rain,80,2012-11-11 00:00:00
10:00 AM,57.2,53.6,88,29.98,6.2,ENE,10.4,-,N/A,Rain,Light Rain,70,2012-11-11 01:00:00
11:00 AM,57.2,53.6,88,29.95,6.2,ENE,12.7,-,N/A,Rain,Light Rain,60,2012-11-11 02:00:00
12:00 PM,59.0,55.4,88,29.92,6.2,ENE,11.5,-,N/A,Rain,Light Rain,70,2012-11-11 03:00:00
1:00 PM,59.0,57.2,94,29.89,6.2,ENE,10.4,-,N/A,Rain,Rain,60,2012-11-11 04:00:00
1:07 PM,59.0,57.2,94,29.89,6.2,ENE,11.5,-,N/A,Rain,Light Rain,60,2012-11-11 04:07:00
1:44 PM,59.0,57.2,94,29.89,6.2,ENE,11.5,-,N/A,Rain,Rain,70,2012-11-11 04:44:00
2:00 PM,59.0,57.2,94,29.89,5.0,ENE,9.2,-,N/A,Rain,Rain,70,2012-11-11 05:00:00
2:07 PM,59.0,57.2,94,29.89,6.2,ENE,9.2,-,N/A,Rain,Light Rain,70,2012-11-11 05:07:00
3:00 PM,59.0,57.2,94,29.89,6.2,ENE,10.4,-,N/A,Rain,Rain,60,2012-11-11 06:00:00
3:36 PM,59.0,57.2,94,29.86,2.8,ENE,11.5,-,N/A,Rain,Rain,70,2012-11-11 06:36:00
3:50 PM,59.0,57.2,94,29.86,3.7,East,13.8,-,N/A,Rain,Rain,90,2012-11-11 06:50:00
4:00 PM,59.0,57.2,94,29.86,5.6,East,11.5,-,N/A,Rain,Rain,80,2012-11-11 07:00:00
4:31 PM,59.0,57.2,94,29.83,6.2,ENE,12.7,-,N/A,Rain,Light Rain,60,2012-11-11 07:31:00
5:00 PM,59.0,57.2,94,29.83,6.2,ENE,12.7,-,N/A,Rain,Rain,60,2012-11-11 08:00:00
5:23 PM,59.0,57.2,94,29.86,6.2,ENE,8.1,-,N/A,Rain,Light Rain,70,2012-11-11 08:23:00
5:38 PM,59.0,57.2,94,29.83,6.2,ENE,10.4,-,N/A,Rain,Rain Showers,60,2012-11-11 08:38:00
6:00 PM,59.0,57.2,94,29.83,5.0,ENE,10.4,-,N/A,Rain,Rain Showers,60,2012-11-11 09:00:00
6:12 PM,59.0,57.2,94,29.83,6.2,ENE,10.4,-,N/A,Rain,Light Rain Showers,60,2012-11-11 09:12:00
7:00 PM,59.0,55.4,88,29.83,6.2,ENE,8.1,-,N/A,Rain,Light Rain Showers,60,2012-11-11 10:00:00
7:26 PM,59.0,55.4,88,29.80,6.2,ENE,17.3,29.9,N/A,Rain,Light Rain Showers,70,2012-11-11 10:26:00
8:00 PM,60.8,55.4,82,29.83,6.2,ENE,17.3,-,N/A,Rain,Light Rain Showers,70,2012-11-11 11:00:00